Home   Weather   Darlington   Past weeks

Flag for United Kingdom Past Weather in Darlington, England, United Kingdom — Yesterday and Last 2 Weeks

Now
43 °F

Scattered clouds.


Feels Like: 33 °F
Forecast: 33 / 47 °F
Wind: 26 mph from Northwest

Location: Tees-Side

Current Time: Apr 24, 2017 at 8:39:20 pm

Latest Report: Apr 24, 2017 at 6:50 pm


Visibility: N/A

Pressure: 29.86 "Hg

Humidity: 61%

Dew Point: 30 °F

Location of DarlingtonLocation

Past Weather in Darlington — Graph

°F

Darlington Temperature Yesterday

Maximum temperature yesterday: 57 °F (at 2:50 pm)
Minimum temperature yesterday: 36 °F (at 5:50 am)
Average temperature yesterday: 50 °F

High & Low Weather Summary for the Past Weeks

 TemperatureHumidityPressure
High61 °F (Apr 20, 2:20 pm)100% (Apr 22, 5:50 am)30.60 "Hg (Apr 22, 5:50 am)
Low32 °F (Apr 18, 6:20 am)32% (Apr 24, 4:20 pm)29.83 "Hg (Apr 14, 3:50 pm)
Average49 °F68%30.20 "Hg
* Reported Apr 9 6:20 pm — Apr 24 6:50 pm, Darlington, Weather by CustomWeather, © 2017

Note: Actual official high and low records may vary slightly from our data, if they occured in-between our weather recording intervals... More about our weather records

Advertising

Darlington Weather History for the Previous 24 Hours

Scroll right to see more
 ConditionsComfort  
Time TempWeatherWind HumidityBarometerVisibility
6:50 pm
Mon, Apr 24
43 °FScattered clouds.26 mph61%29.86 "HgN/A
6:20 pm43 °FScattered clouds.26 mph57%29.86 "HgN/A
5:50 pm48 °FScattered showers. Scattered clouds.28 mph32%29.83 "HgN/A
5:20 pm50 °FScattered showers. Scattered clouds.24 mph37%29.83 "HgN/A
4:50 pm50 °FScattered showers. Scattered clouds.23 mph37%29.83 "HgN/A
4:20 pm52 °FScattered showers. Scattered clouds.21 mph32%29.83 "HgN/A
3:50 pm50 °FPassing clouds.22 mph37%29.83 "HgN/A
3:20 pm52 °FScattered clouds.24 mph41%29.86 "HgN/A
2:50 pm52 °FScattered clouds.20 mph47%29.86 "HgN/A
2:20 pm52 °FScattered clouds.20 mph41%29.86 "HgN/A
1:50 pm52 °FScattered showers. Scattered clouds.21 mph47%29.89 "HgN/A
1:20 pm54 °FScattered showers. Scattered clouds.16 mph41%29.89 "HgN/A
12:50 pm52 °FScattered clouds.16 mph50%29.89 "HgN/A
12:20 pm52 °FScattered clouds.16 mph54%29.89 "HgN/A
11:50 am48 °FScattered clouds.12 mph66%29.92 "HgN/A
11:20 am48 °FScattered clouds.1 mph71%29.92 "HgN/A
10:50 am46 °FScattered clouds.3 mph76%29.95 "HgN/A
10:20 am45 °FPartly sunny.5 mph81%29.95 "HgN/A
9:50 am43 °FScattered clouds.2 mph87%29.95 "HgN/A
9:20 am41 °FScattered clouds.6 mph93%29.95 "HgN/A
8:50 am41 °FLight rain. Partly sunny.12 mph87%29.95 "Hg2 mi
8:20 am43 °FLight rain. Partly sunny.17 mph81%29.95 "Hg2 mi
7:50 am48 °FScattered clouds.12 mph76%29.92 "HgN/A
7:20 am48 °FPassing clouds.14 mph71%29.92 "HgN/A
6:50 am48 °FPassing clouds.10 mph71%29.92 "HgN/A
6:20 am48 °FPassing clouds.14 mph71%29.92 "HgN/A
5:50 am48 °FPassing clouds.12 mph76%29.92 "HgN/A
9:20 pm
Sun, Apr 23
43 °FClear.9 mph76%30.09 "Hg10 mi
8:50 pm48 °FClear.12 mph66%30.09 "Hg10 mi
8:20 pm50 °FPassing clouds.14 mph62%30.09 "HgN/A
Weather by CustomWeather, © 2017

See weather overviewHow to use our weather pages